owner,sensor,date,latitude,longitude,vertical_datum,wind_speed,wind_to_direction,wind_speed_of_gust,qcFlag 
DISL,ioos:station:DISL:CATA:1,2016-02-01T00:00:00Z,30.3085,-88.1395,0.0,7.1,163.3,-9999.0,'1111122,1111122,1111122' 
DISL,ioos:station:DISL:CATA:1,2016-02-01T00:30:00Z,30.3085,-88.1395,0.0,7.32,160.4,-9999.0,'1111122,1111122,1111122' 
DISL,ioos:station:DISL:CATA:1,2016-02-01T01:00:00Z,30.3085,-88.1395,0.0,7.42,161.6,-9999.0,'1111122,1111122,1111122' 
DISL,ioos:station:DISL:CATA:1,2016-02-01T01:30:00Z,30.3085,-88.1395,0.0,8.06,165.4,-9999.0,'1111122,1111122,1111122' 
DISL,ioos:station:DISL:CATA:1,2016-02-01T02:00:00Z,30.3085,-88.1395,0.0,7.67,169.6,-9999.0,'1111122,1111122,1111122' 
DISL,ioos:station:DISL:CATA:1,2016-02-01T02:30:00Z,30.3085,-88.1395,0.0,8.17,173.5,-9999.0,'1111122,1111122,1111122' 
DISL,ioos:station:DISL:CATA:1,2016-02-01T03:00:00Z,30.3085,-88.1395,0.0,7.26,171.2,-9999.0,'1111122,1111122,1111122' 
DISL,ioos:station:DISL:CATA:1,2016-02-01T03:30:00Z,30.3085,-88.1395,0.0,6.8,174.0,-9999.0,'1111122,1111122,1111122' 
DISL,ioos:station:DISL:CATA:1,2016-02-01T04:00:00Z,30.3085,-88.1395,0.0,5.68,177.2,-9999.0,'1111122,1111122,1111122' 
DISL,ioos:station:DISL:CATA:1,2016-02-01T04:30:00Z,30.3085,-88.1395,0.0,5.97,177.6,-9999.0,'1111122,1111122,1111122' 
DISL,ioos:station:DISL:CATA:1,2016-02-01T05:00:00Z,30.3085,-88.1395,0.0,6.19,174.6,-9999.0,'1111122,1111122,1111122' 
DISL,ioos:station:DISL:CATA:1,2016-02-01T05:30:00Z,30.3085,-88.1395,0.0,5.66,177.8,-9999.0,'1111122,1111122,1111122' 
DISL,ioos:station:DISL:CATA:1,2016-02-01T06:00:00Z,30.3085,-88.1395,0.0,5.19,180.2,-9999.0,'1111122,1111122,1111122' 
DISL,ioos:station:DISL:CATA:1,2016-02-01T06:30:00Z,30.3085,-88.1395,0.0,5.51,181.5,-9999.0,'1111122,1111122,1111122' 
DISL,ioos:station:DISL:CATA:1,2016-02-01T07:00:00Z,30.3085,-88.1395,0.0,5.12,179.3,-9999.0,'1111122,1111122,1111122' 
DISL,ioos:station:DISL:CATA:1,2016-02-01T07:30:00Z,30.3085,-88.1395,0.0,5.46,179.1,-9999.0,'1111122,1111122,1111122' 
DISL,ioos:station:DISL:CATA:1,2016-02-01T08:00:00Z,30.3085,-88.1395,0.0,4.94,180.4,-9999.0,'1111122,1111122,1111122' 
DISL,ioos:station:DISL:CATA:1,2016-02-01T08:30:00Z,30.3085,-88.1395,0.0,4.4,182.1,-9999.0,'1111122,1111122,1111122' 
DISL,ioos:station:DISL:CATA:1,2016-02-01T09:00:00Z,30.3085,-88.1395,0.0,4.32,182.4,-9999.0,'1111122,1111122,1111122' 
DISL,ioos:station:DISL:CATA:1,2016-02-01T09:30:00Z,30.3085,-88.1395,0.0,3.28,166.5,-9999.0,'1111122,1111122,1111122' 
DISL,ioos:station:DISL:CATA:1,2016-02-01T10:00:00Z,30.3085,-88.1395,0.0,3.58,179.2,-9999.0,'1111122,1111122,1111122' 
DISL,ioos:station:DISL:CATA:1,2016-02-01T10:30:00Z,30.3085,-88.1395,0.0,4.3,174.6,-9999.0,'1111122,1111122,1111122' 
DISL,ioos:station:DISL:CATA:1,2016-02-01T11:00:00Z,30.3085,-88.1395,0.0,5.88,179.6,-9999.0,'1111122,1111122,1111122' 
DISL,ioos:station:DISL:CATA:1,2016-02-01T11:30:00Z,30.3085,-88.1395,0.0,5.5,175.3,-9999.0,'1111122,1111122,1111122' 
DISL,ioos:station:DISL:CATA:1,2016-02-01T12:00:00Z,30.3085,-88.1395,0.0,4.93,183.4,-9999.0,'1111122,1111122,1111122' 
DISL,ioos:station:DISL:CATA:1,2016-02-01T12:30:00Z,30.3085,-88.1395,0.0,5.68,189.4,-9999.0,'1111122,1111122,1111122' 
DISL,ioos:station:DISL:CATA:1,2016-02-01T13:00:00Z,30.3085,-88.1395,0.0,5.94,186.2,-9999.0,'1111122,1111122,1111122' 
DISL,ioos:station:DISL:CATA:1,2016-02-01T13:30:00Z,30.3085,-88.1395,0.0,6.12,191.1,-9999.0,'1111122,1111122,1111122' 
DISL,ioos:station:DISL:CATA:1,2016-02-01T14:00:00Z,30.3085,-88.1395,0.0,6.12,192.8,-9999.0,'1111122,1111122,1111122' 
DISL,ioos:station:DISL:CATA:1,2016-02-01T14:30:00Z,30.3085,-88.1395,0.0,5.98,196.4,-9999.0,'1111122,1111122,1111122' 
DISL,ioos:station:DISL:CATA:1,2016-02-01T15:00:00Z,30.3085,-88.1395,0.0,5.52,198.0,-9999.0,'1111122,1111122,1111122' 
DISL,ioos:station:DISL:CATA:1,2016-02-01T15:30:00Z,30.3085,-88.1395,0.0,5.49,188.0,-9999.0,'1111122,1111122,1111122' 
DISL,ioos:station:DISL:CATA:1,2016-02-01T16:00:00Z,30.3085,-88.1395,0.0,5.13,196.7,-9999.0,'1111122,1111122,1111122' 
DISL,ioos:station:DISL:CATA:1,2016-02-01T16:30:00Z,30.3085,-88.1395,0.0,4.92,189.5,-9999.0,'1111122,1111122,1111122' 
DISL,ioos:station:DISL:CATA:1,2016-02-01T17:00:00Z,30.3085,-88.1395,0.0,3.11,250.1,-9999.0,'1111122,1111122,1111122' 
DISL,ioos:station:DISL:CATA:1,2016-02-01T17:30:00Z,30.3085,-88.1395,0.0,3.28,279.1,-9999.0,'1111122,1111122,1111122' 
DISL,ioos:station:DISL:CATA:1,2016-02-01T18:00:00Z,30.3085,-88.1395,0.0,2.93,241.0,-9999.0,'1111122,1111122,1111122' 
DISL,ioos:station:DISL:CATA:1,2016-02-01T18:30:00Z,30.3085,-88.1395,0.0,2.4,241.8,-9999.0,'1111122,1111122,1111122' 
DISL,ioos:station:DISL:CATA:1,2016-02-01T19:00:00Z,30.3085,-88.1395,0.0,2.15,235.7,-9999.0,'1111122,1111122,1111122' 
DISL,ioos:station:DISL:CATA:1,2016-02-01T19:30:00Z,30.3085,-88.1395,0.0,1.16,225.5,-9999.0,'1111122,1111122,1111122' 
DISL,ioos:station:DISL:CATA:1,2016-02-01T20:00:00Z,30.3085,-88.1395,0.0,1.01,222.7,-9999.0,'1111122,1111122,1111122' 
DISL,ioos:station:DISL:CATA:1,2016-02-01T20:30:00Z,30.3085,-88.1395,0.0,1.35,191.9,-9999.0,'1111122,1111122,1111122' 
DISL,ioos:station:DISL:CATA:1,2016-02-01T21:00:00Z,30.3085,-88.1395,0.0,1.49,175.1,-9999.0,'1111122,1111122,1111122' 
DISL,ioos:station:DISL:CATA:1,2016-02-01T21:30:00Z,30.3085,-88.1395,0.0,1.45,129.2,-9999.0,'1111122,1111122,1111122' 
DISL,ioos:station:DISL:CATA:1,2016-02-01T22:00:00Z,30.3085,-88.1395,0.0,1.45,104.0,-9999.0,'1111122,1111122,1111122' 
DISL,ioos:station:DISL:CATA:1,2016-02-01T22:30:00Z,30.3085,-88.1395,0.0,1.52,108.8,-9999.0,'1111122,1111122,1111122' 
DISL,ioos:station:DISL:CATA:1,2016-02-01T23:00:00Z,30.3085,-88.1395,0.0,1.2,106.4,-9999.0,'1111122,1111122,1111122' 
DISL,ioos:station:DISL:CATA:1,2016-02-01T23:30:00Z,30.3085,-88.1395,0.0,2.76,130.8,-9999.0,'1111122,1111122,1111122' 
DISL,ioos:station:DISL:CATA:1,2016-02-02T00:00:00Z,30.3085,-88.1395,0.0,3.43,128.3,-9999.0,'1111122,1111122,1111122' 
DISL,ioos:station:DISL:CATA:1,2016-02-02T00:30:00Z,30.3085,-88.1395,0.0,3.7,135.4,-9999.0,'1111122,1111122,1111122' 
DISL,ioos:station:DISL:CATA:1,2016-02-02T01:00:00Z,30.3085,-88.1395,0.0,4.14,139.2,-9999.0,'1111122,1111122,1111122' 
DISL,ioos:station:DISL:CATA:1,2016-02-02T01:30:00Z,30.3085,-88.1395,0.0,4.95,137.7,-9999.0,'1111122,1111122,1111122' 
DISL,ioos:station:DISL:CATA:1,2016-02-02T02:00:00Z,30.3085,-88.1395,0.0,3.85,133.4,-9999.0,'1111122,1111122,1111122' 
DISL,ioos:station:DISL:CATA:1,2016-02-02T02:30:00Z,30.3085,-88.1395,0.0,4.72,138.8,-9999.0,'1111122,1111122,1111122' 
DISL,ioos:station:DISL:CATA:1,2016-02-02T03:00:00Z,30.3085,-88.1395,0.0,3.94,137.7,-9999.0,'1111122,1111122,1111122' 
DISL,ioos:station:DISL:CATA:1,2016-02-02T03:30:00Z,30.3085,-88.1395,0.0,3.29,117.6,-9999.0,'1111122,1111122,1111122' 
DISL,ioos:station:DISL:CATA:1,2016-02-02T04:00:00Z,30.3085,-88.1395,0.0,3.89,133.5,-9999.0,'1111122,1111122,1111122' 
DISL,ioos:station:DISL:CATA:1,2016-02-02T04:30:00Z,30.3085,-88.1395,0.0,5.5,137.7,-9999.0,'1111122,1111122,1111122' 
DISL,ioos:station:DISL:CATA:1,2016-02-02T05:00:00Z,30.3085,-88.1395,0.0,5.08,137.4,-9999.0,'1111122,1111122,1111122' 
DISL,ioos:station:DISL:CATA:1,2016-02-02T05:30:00Z,30.3085,-88.1395,0.0,4.79,139.0,-9999.0,'1111122,1111122,1111122' 
DISL,ioos:station:DISL:CATA:1,2016-02-02T06:00:00Z,30.3085,-88.1395,0.0,5.02,139.9,-9999.0,'1111122,1111122,1111122' 
DISL,ioos:station:DISL:CATA:1,2016-02-02T06:30:00Z,30.3085,-88.1395,0.0,5.35,137.6,-9999.0,'1111122,1111122,1111122' 
DISL,ioos:station:DISL:CATA:1,2016-02-02T07:00:00Z,30.3085,-88.1395,0.0,5.86,142.8,-9999.0,'1111122,1111122,1111122' 
DISL,ioos:station:DISL:CATA:1,2016-02-02T07:30:00Z,30.3085,-88.1395,0.0,4.64,139.9,-9999.0,'1111122,1111122,1111122' 
DISL,ioos:station:DISL:CATA:1,2016-02-02T08:00:00Z,30.3085,-88.1395,0.0,5.35,144.0,-9999.0,'1111122,1111122,1111122' 
DISL,ioos:station:DISL:CATA:1,2016-02-02T08:30:00Z,30.3085,-88.1395,0.0,5.79,142.1,-9999.0,'1111122,1111122,1111122' 
DISL,ioos:station:DISL:CATA:1,2016-02-02T09:00:00Z,30.3085,-88.1395,0.0,6.42,141.6,-9999.0,'1111122,1111122,1111122' 
DISL,ioos:station:DISL:CATA:1,2016-02-02T09:30:00Z,30.3085,-88.1395,0.0,6.48,139.5,-9999.0,'1111122,1111122,1111122' 
DISL,ioos:station:DISL:CATA:1,2016-02-02T10:00:00Z,30.3085,-88.1395,0.0,6.51,140.1,-9999.0,'1111122,1111122,1111122' 
DISL,ioos:station:DISL:CATA:1,2016-02-02T10:30:00Z,30.3085,-88.1395,0.0,6.23,142.6,-9999.0,'1111122,1111122,1111122' 
DISL,ioos:station:DISL:CATA:1,2016-02-02T11:00:00Z,30.3085,-88.1395,0.0,6.03,136.5,-9999.0,'1111122,1111122,1111122' 
DISL,ioos:station:DISL:CATA:1,2016-02-02T11:30:00Z,30.3085,-88.1395,0.0,6.45,140.4,-9999.0,'1111122,1111122,1111122' 
DISL,ioos:station:DISL:CATA:1,2016-02-02T12:00:00Z,30.3085,-88.1395,0.0,6.42,139.0,-9999.0,'1111122,1111122,1111122' 
DISL,ioos:station:DISL:CATA:1,2016-02-02T12:30:00Z,30.3085,-88.1395,0.0,6.59,142.1,-9999.0,'1111122,1111122,1111122' 
DISL,ioos:station:DISL:CATA:1,2016-02-02T13:00:00Z,30.3085,-88.1395,0.0,6.48,142.1,-9999.0,'1111122,1111122,1111122' 
DISL,ioos:station:DISL:CATA:1,2016-02-02T13:30:00Z,30.3085,-88.1395,0.0,6.03,137.9,-9999.0,'1111122,1111122,1111122' 
DISL,ioos:station:DISL:CATA:1,2016-02-02T14:00:00Z,30.3085,-88.1395,0.0,6.58,143.1,-9999.0,'1111122,1111122,1111122' 
DISL,ioos:station:DISL:CATA:1,2016-02-02T14:30:00Z,30.3085,-88.1395,0.0,5.98,134.8,-9999.0,'1111122,1111122,1111122' 
DISL,ioos:station:DISL:CATA:1,2016-02-02T15:00:00Z,30.3085,-88.1395,0.0,5.78,135.1,-9999.0,'1111122,1111122,1111122' 
DISL,ioos:station:DISL:CATA:1,2016-02-02T15:30:00Z,30.3085,-88.1395,0.0,6.3,141.8,-9999.0,'1111122,1111122,1111122' 
DISL,ioos:station:DISL:CATA:1,2016-02-02T16:00:00Z,30.3085,-88.1395,0.0,7.52,144.6,-9999.0,'1111122,1111122,1111122' 
DISL,ioos:station:DISL:CATA:1,2016-02-02T16:30:00Z,30.3085,-88.1395,0.0,7.31,144.7,-9999.0,'1111122,1111122,1111122' 
DISL,ioos:station:DISL:CATA:1,2016-02-02T17:00:00Z,30.3085,-88.1395,0.0,7.22,146.2,-9999.0,'1111122,1111122,1111122' 
DISL,ioos:station:DISL:CATA:1,2016-02-02T17:30:00Z,30.3085,-88.1395,0.0,7.43,145.7,-9999.0,'1111122,1111122,1111122' 
DISL,ioos:station:DISL:CATA:1,2016-02-02T18:00:00Z,30.3085,-88.1395,0.0,9.57,151.7,-9999.0,'1111122,1111122,1111122' 
DISL,ioos:station:DISL:CATA:1,2016-02-02T18:30:00Z,30.3085,-88.1395,0.0,7.82,172.3,-9999.0,'1111122,1111122,1111122' 
DISL,ioos:station:DISL:CATA:1,2016-02-02T19:00:00Z,30.3085,-88.1395,0.0,9.25,163.3,-9999.0,'1111122,1111122,1111122' 
DISL,ioos:station:DISL:CATA:1,2016-02-02T19:30:00Z,30.3085,-88.1395,0.0,9.51,159.9,-9999.0,'1111122,1111122,1111122' 
DISL,ioos:station:DISL:CATA:1,2016-02-02T20:00:00Z,30.3085,-88.1395,0.0,9.23,155.1,-9999.0,'1111122,1111122,1111122' 
DISL,ioos:station:DISL:CATA:1,2016-02-02T20:30:00Z,30.3085,-88.1395,0.0,10.18,154.9,-9999.0,'1111122,1111122,1111122' 
DISL,ioos:station:DISL:CATA:1,2016-02-02T21:00:00Z,30.3085,-88.1395,0.0,11.21,157.7,-9999.0,'1111122,1111122,1111122' 
DISL,ioos:station:DISL:CATA:1,2016-02-02T21:30:00Z,30.3085,-88.1395,0.0,11.71,157.8,-9999.0,'1111122,1111122,1111122' 
DISL,ioos:station:DISL:CATA:1,2016-02-02T22:00:00Z,30.3085,-88.1395,0.0,9.94,158.2,-9999.0,'1111122,1111122,1111122' 
DISL,ioos:station:DISL:CATA:1,2016-02-02T22:30:00Z,30.3085,-88.1395,0.0,9.87,153.1,-9999.0,'1111122,1111122,1111122' 
DISL,ioos:station:DISL:CATA:1,2016-02-02T23:00:00Z,30.3085,-88.1395,0.0,11.71,157.3,-9999.0,'1111122,1111122,1111122' 
DISL,ioos:station:DISL:CATA:1,2016-02-02T23:30:00Z,30.3085,-88.1395,0.0,13.31,159.4,-9999.0,'1111122,1111122,1111122' 
DISL,ioos:station:DISL:CATA:1,2016-02-03T00:00:00Z,30.3085,-88.1395,0.0,12.28,155.1,-9999.0,'1111122,1111122,1111122' 
DISL,ioos:station:DISL:CATA:1,2016-02-03T00:30:00Z,30.3085,-88.1395,0.0,11.88,156.0,-9999.0,'1111122,1111122,1111122' 
DISL,ioos:station:DISL:CATA:1,2016-02-03T01:00:00Z,30.3085,-88.1395,0.0,11.33,159.7,-9999.0,'1111122,1111122,1111122' 
DISL,ioos:station:DISL:CATA:1,2016-02-03T01:30:00Z,30.3085,-88.1395,0.0,12.08,158.3,-9999.0,'1111122,1111122,1111122' 
DISL,ioos:station:DISL:CATA:1,2016-02-03T02:00:00Z,30.3085,-88.1395,0.0,11.34,157.1,-9999.0,'1111122,1111122,1111122' 
DISL,ioos:station:DISL:CATA:1,2016-02-03T02:30:00Z,30.3085,-88.1395,0.0,10.65,166.3,-9999.0,'1111122,1111122,1111122' 
DISL,ioos:station:DISL:CATA:1,2016-02-03T03:00:00Z,30.3085,-88.1395,0.0,10.27,164.8,-9999.0,'1111122,1111122,1111122' 
DISL,ioos:station:DISL:CATA:1,2016-02-03T03:30:00Z,30.3085,-88.1395,0.0,9.73,164.5,-9999.0,'1111122,1111122,1111122' 
DISL,ioos:station:DISL:CATA:1,2016-02-03T04:00:00Z,30.3085,-88.1395,0.0,9.64,167.9,-9999.0,'1111122,1111122,1111122' 
DISL,ioos:station:DISL:CATA:1,2016-02-03T04:30:00Z,30.3085,-88.1395,0.0,10.49,167.2,-9999.0,'1111122,1111122,1111122' 
DISL,ioos:station:DISL:CATA:1,2016-02-03T05:00:00Z,30.3085,-88.1395,0.0,10.3,171.5,-9999.0,'1111122,1111122,1111122' 
DISL,ioos:station:DISL:CATA:1,2016-02-03T05:30:00Z,30.3085,-88.1395,0.0,10.07,162.9,-9999.0,'1111122,1111122,1111122' 
DISL,ioos:station:DISL:CATA:1,2016-02-03T06:00:00Z,30.3085,-88.1395,0.0,9.97,166.8,-9999.0,'1111122,1111122,1111122' 
DISL,ioos:station:DISL:CATA:1,2016-02-03T06:30:00Z,30.3085,-88.1395,0.0,9.74,165.3,-9999.0,'1111122,1111122,1111122' 
DISL,ioos:station:DISL:CATA:1,2016-02-03T07:00:00Z,30.3085,-88.1395,0.0,9.04,165.3,-9999.0,'1111122,1111122,1111122' 
DISL,ioos:station:DISL:CATA:1,2016-02-03T07:30:00Z,30.3085,-88.1395,0.0,8.87,171.2,-9999.0,'1111122,1111122,1111122' 
DISL,ioos:station:DISL:CATA:1,2016-02-03T08:00:00Z,30.3085,-88.1395,0.0,8.93,169.4,-9999.0,'1111122,1111122,1111122' 
DISL,ioos:station:DISL:CATA:1,2016-02-03T08:30:00Z,30.3085,-88.1395,0.0,8.52,171.7,-9999.0,'1111122,1111122,1111122' 
DISL,ioos:station:DISL:CATA:1,2016-02-03T09:00:00Z,30.3085,-88.1395,0.0,8.03,173.1,-9999.0,'1111122,1111122,1111122' 
DISL,ioos:station:DISL:CATA:1,2016-02-03T09:30:00Z,30.3085,-88.1395,0.0,8.66,169.3,-9999.0,'1111122,1111122,1111122' 
DISL,ioos:station:DISL:CATA:1,2016-02-03T10:00:00Z,30.3085,-88.1395,0.0,8.43,168.9,-9999.0,'1111122,1111122,1111122' 
DISL,ioos:station:DISL:CATA:1,2016-02-03T10:30:00Z,30.3085,-88.1395,0.0,6.9,170.2,-9999.0,'1111122,1111122,1111122' 
DISL,ioos:station:DISL:CATA:1,2016-02-03T11:00:00Z,30.3085,-88.1395,0.0,6.44,296.5,-9999.0,'1111122,1111122,1111122' 
DISL,ioos:station:DISL:CATA:1,2016-02-03T11:30:00Z,30.3085,-88.1395,0.0,6.43,282.3,-9999.0,'1111122,1111122,1111122' 
DISL,ioos:station:DISL:CATA:1,2016-02-03T12:00:00Z,30.3085,-88.1395,0.0,7.88,343.0,-9999.0,'1111122,1111122,1111122' 
DISL,ioos:station:DISL:CATA:1,2016-02-03T12:30:00Z,30.3085,-88.1395,0.0,6.26,8.59,-9999.0,'1111122,1111122,1111122' 
DISL,ioos:station:DISL:CATA:1,2016-02-03T13:00:00Z,30.3085,-88.1395,0.0,4.86,30.18,-9999.0,'1111122,1111122,1111122' 
DISL,ioos:station:DISL:CATA:1,2016-02-03T13:30:00Z,30.3085,-88.1395,0.0,4.12,21.97,-9999.0,'1111122,1111122,1111122' 
DISL,ioos:station:DISL:CATA:1,2016-02-03T14:00:00Z,30.3085,-88.1395,0.0,4.72,22.08,-9999.0,'1111122,1111122,1111122' 
DISL,ioos:station:DISL:CATA:1,2016-02-03T14:30:00Z,30.3085,-88.1395,0.0,3.53,19.15,-9999.0,'1111122,1111122,1111122' 
DISL,ioos:station:DISL:CATA:1,2016-02-03T15:00:00Z,30.3085,-88.1395,0.0,4.51,17.47,-9999.0,'1111122,1111122,1111122' 
DISL,ioos:station:DISL:CATA:1,2016-02-03T15:30:00Z,30.3085,-88.1395,0.0,6.61,12.83,-9999.0,'1111122,1111122,1111122' 
DISL,ioos:station:DISL:CATA:1,2016-02-03T16:00:00Z,30.3085,-88.1395,0.0,5.72,19.18,-9999.0,'1111122,1111122,1111122' 
DISL,ioos:station:DISL:CATA:1,2016-02-03T16:30:00Z,30.3085,-88.1395,0.0,5.96,24.4,-9999.0,'1111122,1111122,1111122' 
DISL,ioos:station:DISL:CATA:1,2016-02-03T17:00:00Z,30.3085,-88.1395,0.0,7.08,40.57,-9999.0,'1111122,1111122,1111122' 
DISL,ioos:station:DISL:CATA:1,2016-02-03T17:30:00Z,30.3085,-88.1395,0.0,7.69,26.62,-9999.0,'1111122,1111122,1111122' 
DISL,ioos:station:DISL:CATA:1,2016-02-03T18:00:00Z,30.3085,-88.1395,0.0,7.13,18.0,-9999.0,'1111122,1111122,1111122' 
DISL,ioos:station:DISL:CATA:1,2016-02-03T18:30:00Z,30.3085,-88.1395,0.0,5.38,27.71,-9999.0,'1111122,1111122,1111122' 
DISL,ioos:station:DISL:CATA:1,2016-02-03T19:00:00Z,30.3085,-88.1395,0.0,4.25,17.56,-9999.0,'1111122,1111122,1111122' 
DISL,ioos:station:DISL:CATA:1,2016-02-03T19:30:00Z,30.3085,-88.1395,0.0,4.12,40.22,-9999.0,'1111122,1111122,1111122' 
DISL,ioos:station:DISL:CATA:1,2016-02-03T20:00:00Z,30.3085,-88.1395,0.0,5.68,40.25,-9999.0,'1111122,1111122,1111122' 
DISL,ioos:station:DISL:CATA:1,2016-02-03T20:30:00Z,30.3085,-88.1395,0.0,3.52,49.59,-9999.0,'1111122,1111122,1111122' 
DISL,ioos:station:DISL:CATA:1,2016-02-03T21:00:00Z,30.3085,-88.1395,0.0,4.12,47.5,-9999.0,'1111122,1111122,1111122' 
DISL,ioos:station:DISL:CATA:1,2016-02-03T21:30:00Z,30.3085,-88.1395,0.0,3.24,48.87,-9999.0,'1111122,1111122,1111122' 
DISL,ioos:station:DISL:CATA:1,2016-02-03T22:00:00Z,30.3085,-88.1395,0.0,2.73,57.99,-9999.0,'1111122,1111122,1111122' 
DISL,ioos:station:DISL:CATA:1,2016-02-03T22:30:00Z,30.3085,-88.1395,0.0,1.92,67.36,-9999.0,'1111122,1111122,1111122' 
DISL,ioos:station:DISL:CATA:1,2016-02-03T23:00:00Z,30.3085,-88.1395,0.0,0.18,72.09,-9999.0,'1111122,1111122,1111122' 
DISL,ioos:station:DISL:CATA:1,2016-02-03T23:30:00Z,30.3085,-88.1395,0.0,1.47,11.69,-9999.0,'1111122,1111122,1111122' 
DISL,ioos:station:DISL:CATA:1,2016-02-04T00:00:00Z,30.3085,-88.1395,0.0,1.78,339.8,-9999.0,'1111122,1111122,1111122' 
DISL,ioos:station:DISL:CATA:1,2016-02-04T00:30:00Z,30.3085,-88.1395,0.0,2.79,330.5,-9999.0,'1111122,1111122,1111122' 
DISL,ioos:station:DISL:CATA:1,2016-02-04T01:00:00Z,30.3085,-88.1395,0.0,4.38,326.6,-9999.0,'1111122,1111122,1111122' 
DISL,ioos:station:DISL:CATA:1,2016-02-04T01:30:00Z,30.3085,-88.1395,0.0,4.01,347.9,-9999.0,'1111122,1111122,1111122' 
DISL,ioos:station:DISL:CATA:1,2016-02-04T02:00:00Z,30.3085,-88.1395,0.0,4.73,345.1,-9999.0,'1111122,1111122,1111122' 
DISL,ioos:station:DISL:CATA:1,2016-02-04T02:30:00Z,30.3085,-88.1395,0.0,4.69,350.4,-9999.0,'1111122,1111122,1111122' 
DISL,ioos:station:DISL:CATA:1,2016-02-04T03:00:00Z,30.3085,-88.1395,0.0,4.0,359.6,-9999.0,'1111122,1111122,1111122' 
DISL,ioos:station:DISL:CATA:1,2016-02-04T03:30:00Z,30.3085,-88.1395,0.0,3.6,1.703,-9999.0,'1111122,1111122,1111122' 
DISL,ioos:station:DISL:CATA:1,2016-02-04T04:00:00Z,30.3085,-88.1395,0.0,3.19,4.623,-9999.0,'1111122,1111122,1111122' 
DISL,ioos:station:DISL:CATA:1,2016-02-04T04:30:00Z,30.3085,-88.1395,0.0,4.27,359.5,-9999.0,'1111122,1111122,1111122' 
DISL,ioos:station:DISL:CATA:1,2016-02-04T05:00:00Z,30.3085,-88.1395,0.0,4.29,357.7,-9999.0,'1111122,1111122,1111122' 
DISL,ioos:station:DISL:CATA:1,2016-02-04T05:30:00Z,30.3085,-88.1395,0.0,5.42,355.4,-9999.0,'1111122,1111122,1111122' 
DISL,ioos:station:DISL:CATA:1,2016-02-04T06:00:00Z,30.3085,-88.1395,0.0,7.63,347.9,-9999.0,'1111122,1111122,1111122' 
DISL,ioos:station:DISL:CATA:1,2016-02-04T06:30:00Z,30.3085,-88.1395,0.0,8.54,355.1,-9999.0,'1111122,1111122,1111122' 
DISL,ioos:station:DISL:CATA:1,2016-02-04T07:00:00Z,30.3085,-88.1395,0.0,5.63,2.678,-9999.0,'1111122,1111122,1111122' 
DISL,ioos:station:DISL:CATA:1,2016-02-04T07:30:00Z,30.3085,-88.1395,0.0,6.42,0.592,-9999.0,'1111122,1111122,1111122' 
DISL,ioos:station:DISL:CATA:1,2016-02-04T08:00:00Z,30.3085,-88.1395,0.0,7.99,0.468,-9999.0,'1111122,1111122,1111122' 
DISL,ioos:station:DISL:CATA:1,2016-02-04T08:30:00Z,30.3085,-88.1395,0.0,7.92,2.37,-9999.0,'1111122,1111122,1111122' 
DISL,ioos:station:DISL:CATA:1,2016-02-04T09:00:00Z,30.3085,-88.1395,0.0,5.46,14.76,-9999.0,'1111122,1111122,1111122' 
DISL,ioos:station:DISL:CATA:1,2016-02-04T09:30:00Z,30.3085,-88.1395,0.0,6.74,6.841,-9999.0,'1111122,1111122,1111122' 
DISL,ioos:station:DISL:CATA:1,2016-02-04T10:00:00Z,30.3085,-88.1395,0.0,6.2,4.786,-9999.0,'1111122,1111122,1111122' 
DISL,ioos:station:DISL:CATA:1,2016-02-04T10:30:00Z,30.3085,-88.1395,0.0,6.19,12.93,-9999.0,'1111122,1111122,1111122' 
DISL,ioos:station:DISL:CATA:1,2016-02-04T11:00:00Z,30.3085,-88.1395,0.0,7.0,10.23,-9999.0,'1111122,1111122,1111122' 
DISL,ioos:station:DISL:CATA:1,2016-02-04T11:30:00Z,30.3085,-88.1395,0.0,5.91,18.02,-9999.0,'1111122,1111122,1111122' 
DISL,ioos:station:DISL:CATA:1,2016-02-04T12:00:00Z,30.3085,-88.1395,0.0,7.58,15.57,-9999.0,'1111122,1111122,1111122' 
DISL,ioos:station:DISL:CATA:1,2016-02-04T12:30:00Z,30.3085,-88.1395,0.0,7.05,10.77,-9999.0,'1111122,1111122,1111122' 
DISL,ioos:station:DISL:CATA:1,2016-02-04T13:00:00Z,30.3085,-88.1395,0.0,6.45,12.32,-9999.0,'1111122,1111122,1111122' 
DISL,ioos:station:DISL:CATA:1,2016-02-04T13:30:00Z,30.3085,-88.1395,0.0,7.96,356.7,-9999.0,'1111122,1111122,1111122' 
DISL,ioos:station:DISL:CATA:1,2016-02-04T14:00:00Z,30.3085,-88.1395,0.0,7.37,8.91,-9999.0,'1111122,1111122,1111122' 
DISL,ioos:station:DISL:CATA:1,2016-02-04T14:30:00Z,30.3085,-88.1395,0.0,7.87,17.4,-9999.0,'1111122,1111122,1111122' 
DISL,ioos:station:DISL:CATA:1,2016-02-04T15:00:00Z,30.3085,-88.1395,0.0,7.89,10.1,-9999.0,'1111122,1111122,1111122' 
DISL,ioos:station:DISL:CATA:1,2016-02-04T15:30:00Z,30.3085,-88.1395,0.0,8.2,5.469,-9999.0,'1111122,1111122,1111122' 
DISL,ioos:station:DISL:CATA:1,2016-02-04T16:00:00Z,30.3085,-88.1395,0.0,7.22,0.553,-9999.0,'1111122,1111122,1111122' 
DISL,ioos:station:DISL:CATA:1,2016-02-04T16:30:00Z,30.3085,-88.1395,0.0,7.27,6.357,-9999.0,'1111122,1111122,1111122' 
DISL,ioos:station:DISL:CATA:1,2016-02-04T17:00:00Z,30.3085,-88.1395,0.0,5.78,10.23,-9999.0,'1111122,1111122,1111122' 
DISL,ioos:station:DISL:CATA:1,2016-02-04T17:30:00Z,30.3085,-88.1395,0.0,5.99,6.465,-9999.0,'1111122,1111122,1111122' 
DISL,ioos:station:DISL:CATA:1,2016-02-04T18:00:00Z,30.3085,-88.1395,0.0,6.15,345.8,-9999.0,'1111122,1111122,1111122' 
DISL,ioos:station:DISL:CATA:1,2016-02-04T18:30:00Z,30.3085,-88.1395,0.0,7.44,337.2,-9999.0,'1111122,1111122,1111122' 
DISL,ioos:station:DISL:CATA:1,2016-02-04T19:00:00Z,30.3085,-88.1395,0.0,8.49,347.4,-9999.0,'1111122,1111122,1111122' 
DISL,ioos:station:DISL:CATA:1,2016-02-04T19:30:00Z,30.3085,-88.1395,0.0,8.39,343.9,-9999.0,'1111122,1111122,1111122' 
DISL,ioos:station:DISL:CATA:1,2016-02-04T20:00:00Z,30.3085,-88.1395,0.0,8.89,346.5,-9999.0,'1111122,1111122,1111122' 
DISL,ioos:station:DISL:CATA:1,2016-02-04T20:30:00Z,30.3085,-88.1395,0.0,9.19,356.4,-9999.0,'1111122,1111122,1111122' 
DISL,ioos:station:DISL:CATA:1,2016-02-04T21:00:00Z,30.3085,-88.1395,0.0,9.45,350.2,-9999.0,'1111122,1111122,1111122' 
DISL,ioos:station:DISL:CATA:1,2016-02-04T21:30:00Z,30.3085,-88.1395,0.0,10.42,348.4,-9999.0,'1111122,1111122,1111122' 
DISL,ioos:station:DISL:CATA:1,2016-02-04T22:00:00Z,30.3085,-88.1395,0.0,9.06,353.4,-9999.0,'1111122,1111122,1111122' 
DISL,ioos:station:DISL:CATA:1,2016-02-04T22:30:00Z,30.3085,-88.1395,0.0,9.78,330.4,-9999.0,'1111122,1111122,1111122' 
DISL,ioos:station:DISL:CATA:1,2016-02-04T23:00:00Z,30.3085,-88.1395,0.0,9.82,341.7,-9999.0,'1111122,1111122,1111122' 
DISL,ioos:station:DISL:CATA:1,2016-02-04T23:30:00Z,30.3085,-88.1395,0.0,8.66,337.9,-9999.0,'1111122,1111122,1111122' 
DISL,ioos:station:DISL:CATA:1,2016-02-05T00:00:00Z,30.3085,-88.1395,0.0,7.7,336.8,-9999.0,'1111122,1111122,1111122' 
DISL,ioos:station:DISL:CATA:1,2016-02-05T00:30:00Z,30.3085,-88.1395,0.0,6.94,334.6,-9999.0,'1111122,1111122,1111122' 
DISL,ioos:station:DISL:CATA:1,2016-02-05T01:00:00Z,30.3085,-88.1395,0.0,6.48,337.7,-9999.0,'1111122,1111122,1111122' 
DISL,ioos:station:DISL:CATA:1,2016-02-05T01:30:00Z,30.3085,-88.1395,0.0,7.2,342.2,-9999.0,'1111122,1111122,1111122' 
DISL,ioos:station:DISL:CATA:1,2016-02-05T02:00:00Z,30.3085,-88.1395,0.0,6.53,336.8,-9999.0,'1111122,1111122,1111122' 
DISL,ioos:station:DISL:CATA:1,2016-02-05T02:30:00Z,30.3085,-88.1395,0.0,6.11,347.9,-9999.0,'1111122,1111122,1111122' 
DISL,ioos:station:DISL:CATA:1,2016-02-05T03:00:00Z,30.3085,-88.1395,0.0,6.97,352.0,-9999.0,'1111122,1111122,1111122' 
DISL,ioos:station:DISL:CATA:1,2016-02-05T03:30:00Z,30.3085,-88.1395,0.0,8.28,342.8,-9999.0,'1111122,1111122,1111122' 
DISL,ioos:station:DISL:CATA:1,2016-02-05T04:00:00Z,30.3085,-88.1395,0.0,7.25,356.4,-9999.0,'1111122,1111122,1111122' 
DISL,ioos:station:DISL:CATA:1,2016-02-05T04:30:00Z,30.3085,-88.1395,0.0,6.81,356.2,-9999.0,'1111122,1111122,1111122' 